| time (UTC) | temp C | wind direction | speed KPH | gust KPH | rain 1hr cm | rain 24hr cm | rain mn cm | humidity % | barometer mb |
| 20260506160829 | 27 | 102 | 0.0 | 1.6 | 0.00 | 0.00 | 0.00 | 84 | 1008.8 |
| 20260506160322 | 27 | 127 | 0.0 | 1.6 | 0.00 | 0.00 | 0.00 | 83 | 1008.8 |
| 20260506155813 | 27 | 146 | 0.0 | 0.0 | 0.00 | 0.00 | 0.00 | 83 | 1008.8 |
| 20260506155307 | 27 | 154 | 0.0 | 1.6 | 0.00 | 0.00 | 0.00 | 82 | 1008.8 |
| 20260506154758 | 27 | 118 | 0.0 | 1.6 | 0.00 | 0.00 | 0.00 | 83 | 1008.5 |
| 20260506154251 | 27 | 147 | 0.0 | 3.2 | 0.00 | 0.00 | 0.00 | 82 | 1008.8 |
| 20260506153749 | 27 | 155 | 0.0 | 3.2 | 0.00 | 0.00 | 0.00 | 83 | 1008.8 |
| 20260506153243 | 27 | 132 | 0.0 | 1.6 | 0.00 | 0.00 | 0.00 | 83 | 1008.5 |
| 20260506152737 | 27 | 127 | 1.6 | 1.6 | 0.00 | 0.00 | 0.00 | 83 | 1008.5 |
| 20260506152232 | 27 | 136 | 0.0 | 3.2 | 0.00 | 0.00 | 0.00 | 82 | 1008.5 |
| 20260506151215 | 27 | 102 | 0.0 | 1.6 | 0.00 | 0.00 | 0.00 | 82 | 1008.1 |
| 20260506150707 | 27 | 209 | 0.0 | 1.6 | 0.00 | 0.00 | 0.00 | 82 | 1008.1 |
| 20260506150423 | 27 | 133 | 0.0 | 0.0 | 0.00 | 0.00 | 0.00 | 82 | 1008.1 |
| 20260506145703 | 27 | 130 | 0.0 | 1.6 | 0.00 | 0.00 | 0.00 | 82 | 1008.1 |
| 20260506145154 | 27 | 98 | 0.0 | 1.6 | 0.00 | 0.00 | 0.00 | 83 | 1008.1 |
| 20260506144646 | 27 | 135 | 0.0 | 3.2 | 0.00 | 0.00 | 0.00 | 82 | 1008.1 |
| 20260506144141 | 27 | 137 | 0.0 | 3.2 | 0.00 | 0.00 | 0.00 | 83 | 1007.8 |
| 20260506143636 | 27 | 134 | 0.0 | 1.6 | 0.00 | 0.00 | 0.00 | 83 | 1007.8 |
| 20260506143356 | 27 | 159 | 0.0 | 1.6 | 0.00 | 0.00 | 0.00 | 83 | 1007.8 |
| 20260506142623 | 27 | 117 | 0.0 | 3.2 | 0.00 | 0.00 | 0.00 | 84 | 1007.8 |
| 20260506142114 | 27 | 105 | 0.0 | 4.8 | 0.00 | 0.00 | 0.00 | 84 | 1007.5 |
| 20260506141612 | 27 | 151 | 1.6 | 4.8 | 0.00 | 0.00 | 0.00 | 85 | 1007.8 |
| 20260506141331 | 26 | 218 | 3.2 | 4.8 | 0.00 | 0.00 | 0.00 | 85 | 1007.8 |
| 20260506140600 | 26 | 94 | 0.0 | 4.8 | 0.00 | 0.00 | 0.00 | 86 | 1007.8 |
| 20260506140054 | 26 | 118 | 1.6 | 4.8 | 0.00 | 0.00 | 0.00 | 86 | 1007.8 |
| 20260506135550 | 26 | 117 | 0.0 | 0.0 | 0.00 | 0.00 | 0.00 | 87 | 1007.8 |
| 20260506134750 | 26 | 132 | 0.0 | 0.0 | 0.00 | 0.00 | 0.00 | 89 | 1007.8 |
| 20260506134242 | 26 | 137 | 0.0 | 3.2 | 0.00 | 0.00 | 0.00 | 90 | 1007.8 |
| 20260506133733 | 25 | 141 | 0.0 | 3.2 | 0.00 | 0.00 | 0.00 | 90 | 1007.8 |
| 20260506133002 | 25 | 132 | 0.0 | 0.0 | 0.00 | 0.00 | 0.00 | 90 | 1008.1 |
| 20260506132717 | 25 | 124 | 0.0 | 0.0 | 0.00 | 0.00 | 0.00 | 91 | 1008.1 |
| 20260506131948 | 25 | 121 | 0.0 | 0.0 | 0.00 | 0.00 | 0.00 | 91 | 1008.1 |
| 20260506131441 | 25 | 128 | 0.0 | 0.0 | 0.00 | 0.00 | 0.00 | 91 | 1008.1 |
| 20260506130939 | 25 | 121 | 0.0 | 0.0 | 0.00 | 0.00 | 0.00 | 91 | 1008.1 |
| 20260506130430 | 25 | 123 | 0.0 | 0.0 | 0.00 | 0.00 | 0.00 | 91 | 1008.1 |
| 20260506125922 | 25 | 125 | 0.0 | 0.0 | 0.00 | 0.00 | 0.00 | 92 | 1008.1 |
| 20260506125417 | 25 | 146 | 0.0 | 0.0 | 0.00 | 0.00 | 0.00 | 92 | 1008.1 |
| 20260506124904 | 25 | 137 | 0.0 | 0.0 | 0.00 | 0.00 | 0.00 | 92 | 1008.1 |
| 20260506124618 | 25 | 130 | 0.0 | 6.4 | 0.00 | 0.00 | 0.00 | 92 | 1008.1 |
| 20260506123851 | 25 | 130 | 0.0 | 6.4 | 0.00 | 0.00 | 0.00 | 92 | 1008.1 |
| 20260506123343 | 25 | 134 | 0.0 | 0.0 | 0.00 | 0.00 | 0.00 | 92 | 1008.1 |
| 20260506123048 | 25 | 128 | 0.0 | 0.0 | 0.00 | 0.00 | 0.00 | 92 | 1008.1 |
| 20260506122325 | 25 | 133 | 0.0 | 1.6 | 0.00 | 0.00 | 0.00 | 92 | 1007.8 |
| 20260506121817 | 24 | 123 | 0.0 | 3.2 | 0.00 | 0.00 | 0.00 | 92 | 1007.8 |
| 20260506121310 | 24 | 167 | 0.0 | 3.2 | 0.00 | 0.00 | 0.00 | 92 | 1007.8 |
| 20260506120810 | 24 | 148 | 0.0 | 1.6 | 0.00 | 0.00 | 0.00 | 92 | 1007.8 |
| 20260506120303 | 24 | 136 | 0.0 | 1.6 | 0.00 | 0.00 | 0.00 | 93 | 1007.5 |
| 20260506115757 | 24 | 132 | 0.0 | 1.6 | 0.00 | 0.00 | 0.00 | 93 | 1007.5 |
| 20260506115250 | 24 | 129 | 0.0 | 3.2 | 0.00 | 0.00 | 0.00 | 93 | 1007.5 |
| 20260506114751 | 24 | 129 | 3.2 | 3.2 | 0.00 | 0.00 | 0.00 | 93 | 1007.5 |
| 20260506114508 | 24 | 122 | 0.0 | 3.2 | 0.00 | 0.00 | 0.00 | 93 | 1007.5 |
| 20260506113954 | 24 | 124 | 0.0 | 3.2 | 0.00 | 0.00 | 0.00 | 93 | 1007.5 |
| 20260506113231 | 24 | 123 | 0.0 | 1.6 | 0.00 | 0.00 | 0.00 | 93 | 1007.5 |
| 20260506112731 | 24 | 134 | 0.0 | 3.2 | 0.00 | 0.00 | 0.00 | 93 | 1007.1 |
| 20260506111717 | 24 | 142 | 0.0 | 4.8 | 0.00 | 0.00 | 0.00 | 93 | 1007.1 |
| 20260506111212 | 24 | 130 | 0.0 | 0.0 | 0.00 | 0.00 | 0.00 | 93 | 1007.1 |
| 20260506110707 | 24 | 140 | 0.0 | 0.0 | 0.00 | 0.00 | 0.00 | 93 | 1006.8 |
| 20260506110159 | 24 | 120 | 0.0 | 0.0 | 0.00 | 0.00 | 0.00 | 93 | 1007.1 |
| 20260506105653 | 24 | 114 | 0.0 | 0.0 | 0.00 | 0.00 | 0.00 | 93 | 1006.8 |
| 20260506105144 | 24 | 120 | 0.0 | 1.6 | 0.00 | 0.00 | 0.00 | 93 | 1006.8 |
| 20260506104643 | 24 | 126 | 0.0 | 1.6 | 0.00 | 0.00 | 0.00 | 93 | 1006.8 |
| 20260506104137 | 24 | 145 | 0.0 | 1.6 | 0.00 | 0.00 | 0.00 | 93 | 1006.8 |
| 20260506103630 | 24 | 129 | 0.0 | 1.6 | 0.00 | 0.00 | 0.00 | 93 | 1006.8 |
| 20260506103123 | 24 | 141 | 0.0 | 1.6 | 0.00 | 0.00 | 0.00 | 93 | 1006.8 |
| 20260506102621 | 24 | 127 | 0.0 | 1.6 | 0.00 | 0.00 | 0.00 | 92 | 1006.8 |
| 20260506102115 | 24 | 154 | 0.0 | 3.2 | 0.00 | 0.00 | 0.00 | 92 | 1006.4 |
| 20260506101609 | 24 | 126 | 0.0 | 3.2 | 0.00 | 0.00 | 0.00 | 92 | 1006.8 |
| 20260506101103 | 24 | 184 | 0.0 | 1.6 | 0.00 | 0.00 | 0.00 | 92 | 1006.4 |
| 20260506100600 | 24 | 103 | 0.0 | 1.6 | 0.00 | 0.00 | 0.00 | 92 | 1006.8 |
| 20260506100053 | 24 | 135 | 0.0 | 1.6 | 0.00 | 0.00 | 0.00 | 92 | 1006.4 |
| 20260506095041 | 24 | 141 | 0.0 | 1.6 | 0.00 | 0.00 | 0.00 | 92 | 1006.8 |
| 20260506094539 | 24 | 140 | 0.0 | 0.0 | 0.00 | 0.00 | 0.00 | 92 | 1006.4 |
| 20260506094031 | 24 | 140 | 0.0 | 1.6 | 0.00 | 0.00 | 0.00 | 92 | 1006.4 |
| 20260506093525 | 24 | 139 | 0.0 | 1.6 | 0.00 | 0.00 | 0.00 | 92 | 1006.4 |
| 20260506093245 | 24 | 130 | 0.0 | 3.2 | 0.00 | 0.00 | 0.00 | 91 | 1006.8 |
| 20260506092510 | 24 | 132 | 0.0 | 3.2 | 0.00 | 0.00 | 0.00 | 91 | 1006.4 |
| 20260506092230 | 24 | 126 | 0.0 | 1.6 | 0.00 | 0.00 | 0.00 | 91 | 1006.4 |
| 20260506091456 | 24 | 125 | 0.0 | 0.0 | 0.00 | 0.00 | 0.00 | 91 | 1006.4 |
| 20260506091209 | 24 | 124 | 0.0 | 1.6 | 0.00 | 0.00 | 0.00 | 91 | 1006.8 |
| 20260506090448 | 24 | 123 | 0.0 | 1.6 | 0.00 | 0.00 | 0.00 | 90 | 1006.8 |
| 20260506090206 | 24 | 138 | 0.0 | 3.2 | 0.00 | 0.00 | 0.00 | 90 | 1006.8 |
| 20260506085434 | 25 | 133 | 0.0 | 3.2 | 0.00 | 0.00 | 0.00 | 90 | 1006.8 |
| 20260506084927 | 25 | 131 | 0.0 | 1.6 | 0.00 | 0.00 | 0.00 | 90 | 1006.8 |
| 20260506084424 | 25 | 141 | 0.0 | 3.2 | 0.00 | 0.00 | 0.00 | 90 | 1006.8 |
| 20260506084145 | 25 | 100 | 0.0 | 3.2 | 0.00 | 0.00 | 0.00 | 90 | 1006.8 |
| 20260506083629 | 25 | 92 | 0.0 | 1.6 | 0.00 | 0.00 | 0.00 | 90 | 1006.8 |
| 20260506082906 | 25 | 142 | 0.0 | 4.8 | 0.00 | 0.00 | 0.00 | 90 | 1006.8 |
| 20260506082404 | 25 | 149 | 0.0 | 4.8 | 0.00 | 0.00 | 0.00 | 90 | 1007.1 |
| 20260506081857 | 25 | 132 | 0.0 | 0.0 | 0.00 | 0.00 | 0.00 | 90 | 1007.1 |
| 20260506081351 | 25 | 158 | 0.0 | 3.2 | 0.00 | 0.00 | 0.00 | 90 | 1007.1 |
| 20260506080845 | 25 | 153 | 0.0 | 3.2 | 0.00 | 0.00 | 0.00 | 90 | 1007.1 |
| 20260506080337 | 25 | 124 | 0.0 | 4.8 | 0.00 | 0.00 | 0.00 | 89 | 1007.1 |
| 20260506073529 | 25 | 150 | 0.0 | 1.6 | 0.00 | 0.00 | 0.00 | 89 | 1007.5 |
| 20260506072757 | 25 | 143 | 0.0 | 3.2 | 0.00 | 0.00 | 0.00 | 89 | 1007.5 |
| 20260506072524 | 25 | 114 | 0.0 | 3.2 | 0.00 | 0.00 | 0.00 | 89 | 1007.5 |
| 20260506071751 | 25 | 138 | 0.0 | 1.6 | 0.00 | 0.00 | 0.00 | 89 | 1007.5 |
| 20260506071245 | 25 | 133 | 0.0 | 1.6 | 0.00 | 0.00 | 0.00 | 89 | 1007.5 |
| 20260506070740 | 25 | 133 | 0.0 | 1.6 | 0.00 | 0.00 | 0.00 | 89 | 1007.5 |
| 20260506070238 | 25 | 111 | 0.0 | 3.2 | 0.00 | 0.00 | 0.00 | 89 | 1007.5 |
| 20260506062158 | 25 | 140 | 0.0 | 1.6 | 0.00 | 0.00 | 0.00 | 89 | 1007.8 |
| 20260506061652 | 25 | 139 | 0.0 | 1.6 | 0.00 | 0.00 | 0.00 | 89 | 1007.8 |
| 20260506061142 | 25 | 135 | 0.0 | 1.6 | 0.00 | 0.00 | 0.00 | 89 | 1007.8 |
| 20260506060634 | 25 | 158 | 0.0 | 1.6 | 0.00 | 0.00 | 0.00 | 89 | 1007.8 |
| 20260506060133 | 25 | 147 | 0.0 | 6.4 | 0.00 | 0.00 | 0.00 | 88 | 1007.8 |
| 20260506051035 | 25 | 157 | 0.0 | 1.6 | 0.00 | 0.00 | 0.00 | 87 | 1007.5 |
| 20260506050528 | 25 | 148 | 0.0 | 9.7 | 0.00 | 0.00 | 0.00 | 87 | 1007.8 |
| 20260506045010 | 25 | 172 | 1.6 | 1.6 | 0.00 | 0.00 | 0.00 | 87 | 1007.8 |
| 20260506044001 | 25 | 163 | 0.0 | 11.3 | 0.00 | 0.00 | 0.00 | 87 | 1007.8 |
| 20260506043452 | 25 | 129 | 0.0 | 11.3 | 0.00 | 0.00 | 0.00 | 88 | 1007.8 |
| 20260506042945 | 25 | 143 | 0.0 | 1.6 | 0.00 | 0.00 | 0.00 | 87 | 1007.8 |
| 20260506042439 | 25 | 171 | 0.0 | 4.8 | 0.00 | 0.00 | 0.00 | 87 | 1007.5 |
| 20260506041935 | 25 | 114 | 0.0 | 4.8 | 0.00 | 0.00 | 0.00 | 87 | 1007.5 |
| 20260506041652 | 25 | 88 | 0.0 | 6.4 | 0.00 | 0.00 | 0.00 | 87 | 1007.5 |
| 20260506040925 | 25 | 142 | 0.0 | 6.4 | 0.00 | 0.00 | 0.00 | 87 | 1008.1 |
| 20260506040417 | 25 | 166 | 0.0 | 4.8 | 0.00 | 0.00 | 0.00 | 86 | 1007.8 |
| 20260506035911 | 26 | 106 | 0.0 | 4.8 | 0.00 | 0.00 | 0.00 | 86 | 1007.8 |
| 20260506035615 | 26 | 143 | 0.0 | 9.7 | 0.00 | 0.00 | 0.00 | 86 | 1007.5 |
| 20260506034850 | 26 | 124 | 0.0 | 9.7 | 0.00 | 0.00 | 0.00 | 85 | 1007.5 |
| 20260506034343 | 26 | 117 | 0.0 | 6.4 | 0.00 | 0.00 | 0.00 | 85 | 1007.5 |
| 20260506033837 | 26 | 163 | 3.2 | 6.4 | 0.00 | 0.00 | 0.00 | 84 | 1007.5 |
| 20260506033326 | 26 | 147 | 0.0 | 4.8 | 0.00 | 0.00 | 0.00 | 84 | 1007.5 |
| 20260506032818 | 26 | 129 | 0.0 | 4.8 | 0.00 | 0.00 | 0.00 | 85 | 1007.1 |
| 20260506032311 | 26 | 104 | 0.0 | 4.8 | 0.00 | 0.00 | 0.00 | 84 | 1007.1 |
| 20260506031806 | 26 | 169 | 0.0 | 4.8 | 0.00 | 0.00 | 0.00 | 84 | 1007.1 |
| 20260506031255 | 26 | 132 | 0.0 | 3.2 | 0.00 | 0.00 | 0.00 | 84 | 1007.1 |
| 20260506030749 | 26 | 111 | 0.0 | 4.8 | 0.00 | 0.00 | 0.00 | 84 | 1007.1 |
| 20260506030500 | 26 | 296 | 0.0 | 4.8 | 0.00 | 0.00 | 0.00 | 84 | 1007.1 |
| 20260506025737 | 26 | 121 | 0.0 | 4.8 | 0.00 | 0.00 | 0.00 | 84 | 1007.1 |
| 20260506025237 | 26 | 131 | 0.0 | 4.8 | 0.00 | 0.00 | 0.00 | 84 | 1006.8 |
| 20260506024729 | 26 | 161 | 0.0 | 4.8 | 0.00 | 0.00 | 0.00 | 83 | 1006.8 |
| 20260506024221 | 26 | 118 | 0.0 | 4.8 | 0.00 | 0.00 | 0.00 | 83 | 1006.8 |
| 20260506023935 | 26 | 146 | 0.0 | 4.8 | 0.00 | 0.00 | 0.00 | 83 | 1006.8 |
| 20260506023213 | 26 | 175 | 0.0 | 4.8 | 0.00 | 0.00 | 0.00 | 83 | 1006.8 |
| 20260506022706 | 26 | 138 | 0.0 | 4.8 | 0.00 | 0.00 | 0.00 | 83 | 1006.4 |
| 20260506022201 | 26 | 152 | 3.2 | 4.8 | 0.00 | 0.00 | 0.00 | 83 | 1006.4 |
| 20260506021919 | 26 | 185 | 0.0 | 4.8 | 0.00 | 0.00 | 0.00 | 83 | 1006.4 |
| 20260506021149 | 26 | 149 | 0.0 | 4.8 | 0.00 | 0.00 | 0.00 | 83 | 1006.4 |
| 20260506020645 | 26 | 163 | 3.2 | 4.8 | 0.00 | 0.00 | 0.00 | 82 | 1006.4 |
| 20260506020137 | 26 | 176 | 0.0 | 6.4 | 0.00 | 0.00 | 0.00 | 82 | 1006.4 |
| 20260506015630 | 26 | 151 | 0.0 | 6.4 | 0.00 | 0.00 | 0.00 | 82 | 1006.4 |
| 20260506015128 | 26 | 121 | 3.2 | 4.8 | 0.00 | 0.00 | 0.00 | 82 | 1006.1 |
| 20260506014618 | 26 | 136 | 0.0 | 3.2 | 0.00 | 0.00 | 0.00 | 82 | 1006.1 |
| 20260506014111 | 26 | 126 | 0.0 | 3.2 | 0.00 | 0.00 | 0.00 | 82 | 1006.1 |
| 20260506013602 | 26 | 139 | 0.0 | 9.7 | 0.00 | 0.00 | 0.00 | 81 | 1006.1 |
| 20260506013101 | 26 | 155 | 0.0 | 9.7 | 0.00 | 0.00 | 0.00 | 81 | 1005.8 |
| 20260506012819 | 26 | 141 | 0.0 | 4.8 | 0.00 | 0.00 | 0.00 | 81 | 1005.8 |
| 20260506012046 | 26 | 174 | 0.0 | 4.8 | 0.00 | 0.00 | 0.00 | 80 | 1005.8 |
| 20260506011536 | 27 | 107 | 0.0 | 4.8 | 0.00 | 0.00 | 0.00 | 80 | 1005.8 |
| 20260506011036 | 27 | 128 | 0.0 | 4.8 | 0.00 | 0.00 | 0.00 | 80 | 1005.8 |
| 20260506010529 | 27 | 170 | 1.6 | 14.5 | 0.00 | 0.00 | 0.00 | 80 | 1005.4 |
| 20260506010021 | 27 | 202 | 3.2 | 14.5 | 0.00 | 0.00 | 0.00 | 80 | 1005.8 |
| 20260506005514 | 27 | 119 | 6.4 | 12.9 | 0.00 | 0.00 | 0.00 | 79 | 1005.4 |
| 20260506005014 | 27 | 120 | 0.0 | 12.9 | 0.00 | 0.00 | 0.00 | 80 | 1005.4 |
| 20260506004506 | 27 | 138 | 0.0 | 9.7 | 0.00 | 0.00 | 0.00 | 79 | 1005.4 |
| 20260506004000 | 27 | 129 | 3.2 | 9.7 | 0.00 | 0.00 | 0.00 | 79 | 1005.4 |
| 20260506003452 | 27 | 170 | 0.0 | 6.4 | 0.00 | 0.00 | 0.00 | 78 | 1005.4 |
| 20260506002949 | 27 | 154 | 0.0 | 6.4 | 0.00 | 0.00 | 0.00 | 78 | 1005.4 |
| 20260506002715 | 27 | 117 | 0.0 | 9.7 | 0.00 | 0.00 | 0.00 | 79 | 1005.1 |
| 20260506001938 | 27 | 151 | 0.0 | 9.7 | 0.00 | 0.00 | 0.00 | 79 | 1005.1 |
| 20260506001432 | 27 | 171 | 1.6 | 6.4 | 0.00 | 0.00 | 0.00 | 78 | 1005.4 |
| 20260506000931 | 27 | 198 | 4.8 | 6.4 | 0.00 | 0.00 | 0.00 | 78 | 1005.4 |
| 20260506000423 | 27 | 177 | 0.0 | 11.3 | 0.00 | 0.00 | 0.00 | 78 | 1005.4 |
| 20260505235917 | 27 | 138 | 1.6 | 6.4 | 0.00 | 0.00 | 0.00 | 78 | 1005.4 |
| 20260505235413 | 27 | 170 | 1.6 | 12.9 | 0.00 | 0.00 | 0.00 | 78 | 1005.1 |
| 20260505235139 | 27 | 123 | 3.2 | 12.9 | 0.00 | 0.00 | 0.00 | 78 | 1005.1 |
| 20260505234401 | 27 | 181 | 1.6 | 11.3 | 0.00 | 0.00 | 0.00 | 77 | 1005.1 |
| 20260505233853 | 27 | 215 | 3.2 | 9.7 | 0.00 | 0.00 | 0.00 | 78 | 1005.1 |
| 20260505233344 | 27 | 168 | 0.0 | 4.8 | 0.00 | 0.00 | 0.00 | 78 | 1005.1 |
| 20260505233107 | 27 | 159 | 0.0 | 6.4 | 0.00 | 0.00 | 0.00 | 78 | 1005.4 |
| 20260505232335 | 28 | 133 | 0.0 | 11.3 | 0.00 | 0.00 | 0.00 | 77 | 1005.1 |
| 20260505231826 | 28 | 123 | 3.2 | 11.3 | 0.00 | 0.00 | 0.00 | 77 | 1005.1 |
| 20260505231318 | 28 | 112 | 3.2 | 9.7 | 0.00 | 0.00 | 0.00 | 77 | 1005.4 |
| 20260505230818 | 28 | 268 | 4.8 | 9.7 | 0.00 | 0.00 | 0.00 | 77 | 1005.1 |
| 20260505230532 | 28 | 148 | 1.6 | 9.7 | 0.00 | 0.00 | 0.00 | 77 | 1005.4 |
| 20260505225255 | 28 | 153 | 0.0 | 11.3 | 0.00 | 0.00 | 0.00 | 76 | 1005.4 |
| 20260505224756 | 28 | 153 | 1.6 | 11.3 | 0.00 | 0.00 | 0.00 | 76 | 1005.1 |
| 20260505224246 | 28 | 164 | 4.8 | 14.5 | 0.00 | 0.00 | 0.00 | 76 | 1005.4 |
| 20260505223738 | 28 | 194 | 8.0 | 14.5 | 0.00 | 0.00 | 0.00 | 75 | 1005.4 |
| 20260505223231 | 28 | 172 | 0.0 | 14.5 | 0.00 | 0.00 | 0.00 | 75 | 1005.1 |
| 20260505222730 | 28 | 213 | 3.2 | 14.5 | 0.00 | 0.00 | 0.00 | 75 | 1005.4 |
| 20260505222222 | 28 | 189 | 6.4 | 14.5 | 0.00 | 0.00 | 0.00 | 75 | 1005.4 |
| 20260505221714 | 28 | 167 | 1.6 | 14.5 | 0.00 | 0.00 | 0.00 | 75 | 1005.4 |
| 20260505221437 | 29 | 101 | 0.0 | 11.3 | 0.00 | 0.00 | 0.00 | 74 | 1005.4 |
| 20260505220705 | 29 | 159 | 0.0 | 11.3 | 0.00 | 0.00 | 0.00 | 74 | 1005.4 |
| 20260505220158 | 29 | 65 | 0.0 | 11.3 | 0.00 | 0.00 | 0.00 | 73 | 1005.4 |
| 20260505215649 | 29 | 155 | 4.8 | 11.3 | 0.00 | 0.00 | 0.00 | 73 | 1005.4 |
| 20260505215142 | 29 | 162 | 0.0 | 12.9 | 0.00 | 0.00 | 0.00 | 73 | 1005.8 |
| 20260505214642 | 29 | 149 | 1.6 | 12.9 | 0.00 | 0.00 | 0.00 | 73 | 1005.4 |
| 20260505214136 | 29 | 166 | 6.4 | 12.9 | 0.00 | 0.00 | 0.00 | 73 | 1005.8 |
| 20260505213630 | 30 | 117 | 4.8 | 17.7 | 0.00 | 0.00 | 0.00 | 73 | 1005.8 |
| 20260505213123 | 30 | 175 | 3.2 | 17.7 | 0.00 | 0.00 | 0.00 | 72 | 1005.8 |
| 20260505212623 | 29 | 161 | 1.6 | 14.5 | 0.00 | 0.00 | 0.00 | 73 | 1005.8 |
| 20260505212115 | 29 | 341 | 4.8 | 14.5 | 0.00 | 0.00 | 0.00 | 73 | 1005.8 |
| 20260505211608 | 30 | 115 | 0.0 | 11.3 | 0.00 | 0.00 | 0.00 | 72 | 1005.8 |
| 20260505211101 | 30 | 210 | 6.4 | 11.3 | 0.00 | 0.00 | 0.00 | 72 | 1005.8 |
| 20260505210601 | 30 | 115 | 6.4 | 14.5 | 0.00 | 0.00 | 0.00 | 72 | 1006.1 |
| 20260505210055 | 30 | 151 | 6.4 | 16.1 | 0.00 | 0.00 | 0.00 | 72 | 1006.1 |
| 20260505205548 | 29 | 200 | 6.4 | 14.5 | 0.00 | 0.00 | 0.00 | 73 | 1006.1 |
| 20260505205041 | 29 | 164 | 0.0 | 14.5 | 0.00 | 0.00 | 0.00 | 73 | 1006.1 |
| 20260505204539 | 30 | 181 | 1.6 | 14.5 | 0.00 | 0.00 | 0.00 | 73 | 1006.1 |
| 20260505204033 | 30 | 271 | 8.0 | 14.5 | 0.00 | 0.00 | 0.00 | 73 | 1006.1 |
| 20260505203526 | 29 | 99 | 1.6 | 11.3 | 0.00 | 0.00 | 0.00 | 73 | 1006.4 |
| 20260505203021 | 29 | 175 | 0.0 | 11.3 | 0.00 | 0.00 | 0.00 | 73 | 1006.4 |
| 20260505202510 | 30 | 143 | 0.0 | 14.5 | 0.00 | 0.00 | 0.00 | 73 | 1006.4 |
| 20260505202003 | 29 | 122 | 4.8 | 14.5 | 0.00 | 0.00 | 0.00 | 74 | 1006.8 |
| 20260505201455 | 29 | 183 | 0.0 | 9.7 | 0.00 | 0.00 | 0.00 | 73 | 1006.8 |
| 20260505200948 | 29 | 182 | 1.6 | 9.7 | 0.00 | 0.00 | 0.00 | 73 | 1006.8 |
| 20260505200445 | 30 | 177 | 6.4 | 12.9 | 0.00 | 0.00 | 0.00 | 72 | 1006.8 |
| 20260505195939 | 29 | 146 | 1.6 | 20.9 | 0.00 | 0.00 | 0.00 | 73 | 1006.8 |
| 20260505195434 | 29 | 141 | 4.8 | 20.9 | 0.00 | 0.00 | 0.00 | 73 | 1006.8 |
| 20260505194926 | 29 | 133 | 1.6 | 11.3 | 0.00 | 0.00 | 0.00 | 74 | 1007.1 |
| 20260505194417 | 29 | 173 | 1.6 | 11.3 | 0.00 | 0.00 | 0.00 | 74 | 1007.1 |
| 20260505193911 | 30 | 210 | 6.4 | 9.7 | 0.00 | 0.00 | 0.00 | 72 | 1007.1 |
| 20260505193402 | 30 | 129 | 3.2 | 9.7 | 0.00 | 0.00 | 0.00 | 72 | 1007.1 |
| 20260505192855 | 29 | 198 | 0.0 | 11.3 | 0.00 | 0.00 | 0.00 | 73 | 1007.1 |
| 20260505192354 | 29 | 144 | 6.4 | 11.3 | 0.00 | 0.00 | 0.00 | 74 | 1007.1 |
| 20260505191846 | 28 | 219 | 4.8 | 11.3 | 0.00 | 0.00 | 0.00 | 75 | 1007.5 |
| 20260505191607 | 28 | 157 | 4.8 | 11.3 | 0.00 | 0.00 | 0.00 | 75 | 1007.5 |
| 20260505190835 | 28 | 235 | 3.2 | 11.3 | 0.00 | 0.00 | 0.00 | 76 | 1007.5 |
| 20260505190331 | 27 | 109 | 0.0 | 11.3 | 0.00 | 0.00 | 0.00 | 78 | 1007.5 |
| 20260505185823 | 28 | 172 | 3.2 | 11.3 | 0.00 | 0.00 | 0.00 | 77 | 1007.1 |
| 20260505185318 | 28 | 203 | 6.4 | 11.3 | 0.00 | 0.00 | 0.00 | 75 | 1007.5 |
| 20260505184810 | 28 | 160 | 0.0 | 11.3 | 0.00 | 0.00 | 0.00 | 74 | 1007.5 |
| 20260505184529 | 28 | 179 | 0.0 | 6.4 | 0.00 | 0.00 | 0.00 | 75 | 1007.5 |
| 20260505183803 | 28 | 94 | 1.6 | 11.3 | 0.00 | 0.00 | 0.00 | 77 | 1007.5 |
| 20260505183256 | 28 | 170 | 4.8 | 11.3 | 0.00 | 0.00 | 0.00 | 76 | 1007.5 |
| 20260505182750 | 28 | 130 | 1.6 | 14.5 | 0.00 | 0.00 | 0.00 | 76 | 1007.5 |
| 20260505182242 | 27 | 159 | 0.0 | 14.5 | 0.00 | 0.00 | 0.00 | 77 | 1007.5 |
| 20260505181733 | 27 | 117 | 0.0 | 6.4 | 0.00 | 0.00 | 0.00 | 78 | 1007.5 |
| 20260505181226 | 27 | 141 | 1.6 | 11.3 | 0.00 | 0.00 | 0.00 | 77 | 1007.5 |
| 20260505180942 | 28 | 140 | 4.8 | 11.3 | 0.00 | 0.00 | 0.00 | 77 | 1007.5 |
| 20260505180219 | 28 | 164 | 0.0 | 11.3 | 0.00 | 0.00 | 0.00 | 76 | 1007.8 |
| 20260505175713 | 28 | 189 | 0.0 | 20.9 | 0.00 | 0.00 | 0.00 | 76 | 1007.8 |
| 20260505175430 | 27 | 155 | 6.4 | 14.5 | 0.00 | 0.00 | 0.00 | 78 | 1007.8 |
| 20260505174657 | 27 | 121 | 0.0 | 9.7 | 0.00 | 0.00 | 0.00 | 79 | 1007.8 |
| 20260505174156 | 27 | 159 | 4.8 | 11.3 | 0.00 | 0.00 | 0.00 | 79 | 1007.8 |
| 20260505173648 | 27 | 193 | 3.2 | 14.5 | 0.00 | 0.00 | 0.00 | 79 | 1008.1 |
| 20260505173408 | 27 | 111 | 8.0 | 14.5 | 0.00 | 0.00 | 0.00 | 78 | 1008.1 |
| 20260505172634 | 27 | 148 | 0.0 | 9.7 | 0.00 | 0.00 | 0.00 | 78 | 1008.1 |
| 20260505172134 | 27 | 227 | 0.0 | 12.9 | 0.00 | 0.00 | 0.00 | 78 | 1007.8 |
| 20260505171627 | 27 | 120 | 1.6 | 12.9 | 0.00 | 0.00 | 0.00 | 79 | 1007.8 |
| 20260505171119 | 27 | 171 | 0.0 | 6.4 | 0.00 | 0.00 | 0.00 | 79 | 1008.1 |
| 20260505170831 | 27 | 141 | 0.0 | 6.4 | 0.00 | 0.00 | 0.00 | 80 | 1008.1 |
| 20260505170113 | 27 | 149 | 0.0 | 9.7 | 0.00 | 0.00 | 0.00 | 80 | 1008.1 |
| 20260505165604 | 26 | 212 | 0.0 | 9.7 | 0.00 | 0.00 | 0.00 | 80 | 1008.1 |
| 20260505165059 | 26 | 170 | 0.0 | 6.4 | 0.00 | 0.00 | 0.00 | 80 | 1008.1 |
| 20260505164551 | 26 | 167 | 0.0 | 6.4 | 0.00 | 0.00 | 0.00 | 80 | 1008.1 |
| 20260505164309 | 26 | 286 | 4.8 | 6.4 | 0.00 | 0.00 | 0.00 | 81 | 1008.1 |
| 20260505163542 | 26 | 140 | 0.0 | 14.5 | 0.00 | 0.00 | 0.00 | 82 | 1008.1 |
| 20260505163033 | 26 | 123 | 0.0 | 14.5 | 0.00 | 0.00 | 0.00 | 82 | 1008.1 |
| 20260505162525 | 26 | 160 | 3.2 | 14.5 | 0.00 | 0.00 | 0.00 | 81 | 1008.1 |
| 20260505162023 | 26 | 222 | 0.0 | 14.5 | 0.00 | 0.00 | 0.00 | 80 | 1008.1 |
| 20260505161517 | 26 | 197 | 0.0 | 9.7 | 0.00 | 0.00 | 0.00 | 79 | 1007.8 |